Location: Ostrava
(49.8330°N, 18.2830°E)
Time: 00:45:47
(UTC+01:00)

Cosmos 2219 Rocket - Visible Passes

Search period start: 27 March 2015 00:00
Search period end: 06 April 2015 01:00
Orbit: 830 x 845 km, 71.0° (Epoch: 26 March)

Date Brightness Start Highest point End Pass type
(mag) Time Alt. Az. Time Alt. Az. Time Alt. Az.
27 Mar 2.7 18:53:48 10° NNW 18:59:09 44° NE 19:04:28 10° SE visible
27 Mar 3.4 20:37:57 10° NW 20:43:05 37° WSW 20:46:14 20° SSW visible
28 Mar 2.7 18:37:31 10° NNW 18:42:49 41° NE 18:48:09 10° ESE visible
28 Mar 3.3 20:21:37 10° NW 20:26:49 40° WSW 20:30:56 15° S visible
29 Mar 3.2 21:05:16 10° NW 21:10:33 43° WSW 21:15:44 10° S visible
30 Mar 3.1 20:48:57 10° NW 20:54:17 46° WSW 20:59:36 10° S visible
31 Mar 3.1 20:32:37 10° NW 20:38:01 49° WSW 20:43:23 10° S visible
01 Apr 3.0 20:16:18 10° NW 20:21:45 52° WSW 20:27:10 10° S visible
02 Apr 2.9 19:59:58 10° NW 20:05:28 56° WSW 20:10:57 10° S visible
03 Apr 2.8 19:43:40 10° NW 19:49:12 60° WSW 19:54:42 10° S visible
04 Apr 5.2 21:14:44 10° W 21:15:55 10° W 21:16:45 10° WSW visible
05 Apr 5.1 20:57:46 10° WNW 20:59:41 11° W 21:01:16 10° WSW visible
